Torna al catalogo

CZ-6A DEB

AttivoSSO
NORAD 56237·DEBRIS·🇨🇳 China

Lanciato Nov 11, 2022 da Taiyuan Satellite Launch Center

Loading…

Prossimi Passaggi (prossime 24 ore)

TLE

AggiornatoSource: Space-Track

Epoca: Sep 12, 2026, 09:11 UTC

1 56237U 22151ABD 26255.38294059  .00000661  00000-0  49098-3 0  9990
2 56237  98.9104 218.9777 0126545 206.0827 153.3923 13.94807955177029

Traccia CZ-6A DEB in tempo reale con AllMySat

Download on the App Store